Location: Ozark
(37.5425°N, 88.7628°W)
Time: 02:04:00
(UTC+00:00)

H-2A R/B - Pass Details

Date: 26 January 2020
Orbit: 503 x 540 km, 97.3° (Epoch: 21 February)

Event Time Altitude Azimuth Distance (km) Brightness Sun altitude
Rises 23:35:36 0° 177° (S) 2,649 6.5 -5.2°
Reaches altitude 10° 23:37:43 10° 181° (S) 1,770 5.7 -5.6°
Maximum altitude 23:41:28 55° 260° (W) 645 3.7 -6.3°
Drops below altitude 10° 23:45:18 10° 339° (NNW) 1,800 5.5 -7.0°
Sets 23:47:28 0° 344° (NNW) 2,699 6.3 -7.4°
